Location: Bergnerzell
(49.1816°N, 10.2565°E)
Time: 15:44:17
(UTC+00:00)

Meteor 1-24 Rocket - Pass Details

Date: 10 August 2024
Orbit: 790 x 926 km, 81.3° (Epoch: 08 September)

Event Time Altitude Azimuth Distance (km) Brightness Sun altitude
Rises 01:21:10 0° 353° (N) 3,486 7.8 -20.4°
Reaches altitude 10° 01:23:50 10° 3° (N) 2,564 7.1 -20.2°
Maximum altitude 01:29:09 35° 68° (ENE) 1,441 5.4 -19.7°
Drops below altitude 10° 01:34:33 10° 132° (SE) 2,610 6.2 -19.2°
Sets 01:37:16 0° 142° (SE) 3,557 6.8 -19.0°
